[[{"header":{"parameterUnit":"m.s-1","parameterCategory":1,"la1":30.2991,"la2":30.254,"lo1":-89.0895,"lo2":-89.0444,"dy":0.0017,"dx":0.0017,"nx":28,"ny":28,"refTime":"2023-07-23T09:00:00:Z","depth":0,"parameterNumber":2,"parameterNumberName":"U-component_of_WINDS"},"data":[0,0,0,0,0,0,0,0,0,0,0,0,0,0,0,0,0,0,0,0,0,0,0,0,0,0,0,0,0,0,0,0,0,0,0,0,0,0,0,0,0,0,0,0,0,0,0,0,0,0,0,0,0,0,0,0,0,0,0.3248,0.3249,0,0.3263,0.3264,0.3264,0.3238,0.3237,0.3236,0.3236,0.3252,0.3253,0.3254,0,0,0,0,0,0,0,0,0,0,0,0,0,0.3199,0.32,0.3248,0.3249,0.3249,0.3263,0.3264,0.3264,0.3238,0.3237,0.3236,0.3235,0.3251,0.3253,0.3254,0,0,0,0,0,0,0,0,0,0,0,0,0,0.3218,0.32,0.3248,0.3238,0.3237,0.3263,0.3264,0.3264,0.3238,0.3237,0.3236,0.3235,0.3251,0.3253,0.3255,0.3292,0,0,0.326,0.3261,0,0,0,0,0,0,0,0,0.3217,0.322,0.3239,0.3239,0.3238,0.3248,0.3252,0.3273,0.3239,0.3238,0.3235,0.3234,0.3252,0.3253,0.3259,0.3293,0.3294,0.326,0.3262,0.3262,0.3263,0,0,0,0,0,0,0,0.3215,0.3219,0.3254,0.324,0.3239,0.3233,0.3234,0.3256,0.3252,0.3238,0.3236,0.3238,0.3251,0.3257,0.3259,0.3294,0.326,0.3262,0.3263,0.3264,0.3361,0.3362,0,0,0,0,0,0,0.3215,0.3218,0.3254,0.3255,0.3224,0.3235,0.3236,0.3246,0.3252,0.3251,0.3239,0.3237,0.3255,0.3257,0.326,0.3305,0.3262,0.3264,0.3265,0.3359,0.3361,0.3363,0,0,0,0,0,0,0.3214,0.3219,0.3253,0.3236,0.324,0.3237,0.3248,0.3247,0.3253,0.3253,0.3252,0.3246,0.3254,0.3257,0.3285,0.3305,0.3265,0.3267,0.3358,0.336,0.3362,0.3396,0,0,0,0,0,0,0.3213,0.3219,0.3233,0.3236,0.3241,0.3278,0.3249,0.3248,0.3256,0.3253,0.3259,0.3259,0.3253,0.3282,0.3286,0.3307,0.3268,0.3356,0.3359,0.3361,0.3393,0.3399,0.3405,0,0,0,0,0,0.3211,0.3242,0.3234,0.3238,0.3258,0.3279,0.3282,0.3274,0.3258,0.3273,0.3272,0.3259,0.3302,0.3285,0.329,0.3312,0.3354,0.3358,0.3361,0.3391,0.3398,0.3404,0,0,0,0,0,0,0.3241,0.3242,0.3233,0.3265,0.3272,0.3275,0.3293,0.3282,0.3294,0.3291,0.3281,0.3282,0.3312,0.3314,0.3295,0.3349,0.3326,0.333,0.3347,0.3354,0.3359,0.3359,0.327,0,0,0,0,0,0.3251,0.3268,0.3268,0.3296,0.33,0.3296,0.3305,0.3298,0.3305,0.3308,0.331,0.3317,0.3332,0.3343,0.3357,0.3393,0.3394,0.341,0.3416,0.342,0.3425,0.3445,0.3453,0.3373,0.3373,0.3373,0,0,0.3273,0.3276,0.3287,0.3303,0.3307,0.3325,0.3299,0.3318,0.3332,0.3311,0.3338,0.3339,0.3347,0.3379,0.3393,0.3382,0.3447,0.3425,0.3428,0.343,0.3449,0.3457,0.3464,0.3376,0.3375,0.3375,0,0,0.3322,0.3325,0.335,0.3355,0.3362,0.3359,0.3364,0.3368,0.3369,0.3395,0.338,0.3395,0.3422,0.3428,0.3435,0.3486,0.3474,0.349,0.3521,0.3541,0.3547,0.3552,0.3572,0.3579,0.3495,0.3495,0.3495,0,0.3348,0.3374,0.3364,0.3385,0.3393,0.3374,0.34,0.3405,0.3416,0.3423,0.3409,0.3442,0.3446,0.348,0.3492,0.3498,0.3505,0.3491,0.3547,0.3552,0.3557,0.3576,0.3583,0.3497,0.3496,0.3496,0.3496,0,0.3407,0.3425,0.3444,0.3456,0.3465,0.3488,0.3482,0.3493,0.3485,0.3484,0.3511,0.3515,0.353,0.3537,0.3529,0.357,0.3563,0.3548,0.3525,0.3567,0.3584,0.3591,0.35,0.3499,0.3498,0.3498,0,0,0.3477,0.3481,0.3489,0.3494,0.35,0.3514,0.3537,0.3551,0.3561,0.3569,0.3589,0.3611,0.3598,0.3605,0.3598,0.3616,0.3657,0.3599,0.3599,0.3611,0.3704,0.3716,0.3725,0.3649,0.365,0.3651,0.3704,0,0.3527,0.3565,0.3556,0.3594,0.3612,0.3594,0.3613,0.3619,0.3618,0.3633,0.3631,0.3648,0.3628,0.3633,0.3649,0.3649,0.3676,0.3645,0.3668,0.3669,0.3669,0.3734,0.3747,0.3796,0.371,0.3711,0.3712,0,0.359,0.3601,0.3641,0.3645,0.3652,0.3669,0.3682,0.3696,0.3702,0.37,0.3709,0.3698,0.3721,0.3696,0.3728,0.3707,0.3715,0.3717,0.3718,0.3722,0.3695,0.3741,0.3812,0.382,0.3723,0.3722,0.3721,0,0.364,0.3664,0.3691,0.3696,0.37,0.3713,0.3716,0.3721,0.373,0.3741,0.3747,0.376,0.3768,0.3779,0.3773,0.3755,0.3806,0.378,0.3806,0.3806,0.3819,0.3819,0.3895,0.3822,0.3821,0.3821,0.3821,0,0.3698,0.3723,0.3713,0.373,0.3758,0.3748,0.3776,0.3776,0.3781,0.3798,0.3783,0.3799,0.3789,0.3805,0.38,0.3828,0.3831,0.3831,0.3829,0.3833,0.3833,0.384,0.3837,0.3823,0.3823,0.3822,0.3822,0,0.3758,0.3752,0.3781,0.3783,0.3784,0.3805,0.3806,0.3822,0.3819,0.3841,0.3846,0.3842,0.386,0.3854,0.3873,0.3869,0.3905,0.3898,0.3903,0.3902,0.3929,0.3927,0.4014,0.4025,0.3943,0.3943,0.3944,0,0.3797,0.3816,0.382,0.383,0.3833,0.385,0.3859,0.3849,0.3859,0.3868,0.3884,0.39,0.3913,0.3942,0.3941,0.3955,0.395,0.3979,0.3952,0.3956,0.3953,0.3953,0.3955,0.3985,0.3986,0.3987,0.3988,0,0.3867,0.3862,0.3876,0.3889,0.39,0.391,0.3918,0.3928,0.3918,0.393,0.3948,0.3958,0.3977,0.3994,0.4007,0.401,0.3998,0.3996,0.4003,0.4008,0.4011,0.4012,0.392,0.3995,0.3994,0.3993,0.3993,0.3993,0.3919,0.3935,0.3941,0.3956,0.3961,0.3969,0.3985,0.3984,0.3998,0.4013,0.4006,0.4027,0.4033,0.4049,0.4054,0.407,0.4059,0.4069,0.4072,0.4075,0.4079,0.4006,0.4072,0.4072,0.4072,0.4072,0.4072,0,0.3989,0.3991,0.4006,0.4018,0.4031,0.4016,0.4025,0.4037,0.4055,0.4062,0.4074,0.4095,0.4111,0.4111,0.4126,0.4139,0.4134,0.4144,0.4144,0.4145,0.4088,0.4081,0.4148,0.4148,0.4148,0.4148,0.4148,0.4148,0.4028,0.4056,0.4052,0.4082,0.4084,0.4104,0.411,0.4118,0.4123,0.4147,0.416,0.4159,0.4163,0.4178,0.4193,0.4192,0.4199,0.4212,0.4209,0.4156,0.4149,0.4142,0.4135,0.4213,0.4213,0.4266,0.4266,0.4266]},{"header":{"parameterUnit":"m.s-1","parameterCategory":1,"la1":30.2991,"la2":30.254,"lo1":-89.0895,"lo2":-89.0444,"dy":0.0017,"dx":0.0017,"nx":28,"ny":28,"refTime":"2023-07-23T09:00:00:Z","depth":0,"parameterNumber":3,"parameterNumberName":"V-component_of_WINDS"},"data":[0,0,0,0,0,0,0,0,0,0,0,0,0,0,0,0,0,0,0,0,0,0,0,0,0,0,0,0,0,0,0,0,0,0,0,0,0,0,0,0,0,0,0,0,0,0,0,0,0,0,0,0,0,0,0,0,0,0,-1.9786,-1.9788,0,-1.9899,-1.99,-1.9902,-1.9915,-1.9914,-1.9913,-1.9912,-2.0029,-2.0033,-2.0037,0,0,0,0,0,0,0,0,0,0,0,0,0,-1.9583,-1.9587,-1.9786,-1.9788,-1.9789,-1.9899,-1.9901,-1.9902,-1.9915,-1.9914,-1.9913,-1.9911,-2.0027,-2.0032,-2.0037,0,0,0,0,0,0,0,0,0,0,0,0,0,-1.9681,-1.9588,-1.9786,-1.9809,-1.9812,-1.9899,-1.9901,-1.9903,-1.9916,-1.9914,-1.9912,-1.9911,-2.0026,-2.0032,-2.0038,-2.011,0,0,-2.0057,-2.006,0,0,0,0,0,0,0,0,-1.9676,-1.9689,-1.9804,-1.9808,-1.9811,-1.9891,-1.9872,-1.9972,-1.9916,-1.9876,-1.9912,-1.991,-1.9984,-1.9994,-2.0019,-2.0115,-2.012,-2.0058,-2.0061,-2.0064,-2.0066,0,0,0,0,0,0,0,-1.9669,-1.9684,-1.9831,-1.9806,-1.981,-1.9814,-1.9826,-1.9891,-1.9939,-1.988,-1.9881,-1.9894,-1.9986,-2.0013,-2.0022,-2.0122,-2.0057,-2.0063,-2.0067,-2.0069,-2.0282,-2.0284,0,0,0,0,0,0,-1.9658,-1.9678,-1.9827,-1.9834,-1.9738,-1.9819,-1.9832,-1.9867,-1.9938,-1.9947,-1.9895,-1.9894,-2.0003,-2.0014,-2.0026,-2.0114,-2.0064,-2.007,-2.0073,-2.0281,-2.0283,-2.0285,0,0,0,0,0,0,-1.9653,-1.9671,-1.9823,-1.9757,-1.9776,-1.9824,-1.9863,-1.9871,-1.9897,-1.995,-1.9958,-1.9914,-2.0002,-2.0017,-2.0089,-2.0118,-2.0073,-2.0078,-2.0278,-2.0281,-2.0284,-2.0292,0,0,0,0,0,0,-1.9647,-1.9669,-1.9697,-1.9757,-1.978,-1.9884,-1.9865,-1.9874,-1.9908,-1.9907,-1.9969,-1.9978,-2.0002,-2.0079,-2.0095,-2.0126,-2.0083,-2.0276,-2.028,-2.0283,-2.0289,-2.0294,-2.0299,0,0,0,0,0,-1.964,-1.9695,-1.9698,-1.9716,-1.9815,-1.9885,-1.9898,-1.9924,-1.991,-1.9938,-1.9972,-1.9976,-2.0113,-2.0086,-2.0104,-2.0138,-2.0274,-2.0278,-2.0283,-2.0287,-2.0293,-2.0299,0,0,0,0,0,0,-1.9638,-1.9703,-1.9708,-1.9784,-1.9829,-1.9887,-1.9924,-1.9931,-1.9981,-1.9979,-2.0009,-2.0023,-2.0093,-2.0123,-2.0092,-2.0211,-2.0192,-2.02,-2.0189,-2.0196,-2.0201,-2.0192,-2.0088,0,0,0,0,0,-1.9646,-1.9697,-1.9752,-1.9813,-1.9836,-1.9876,-1.9907,-1.9923,-1.9971,-1.9991,-2.003,-2.0076,-2.013,-2.0164,-2.0217,-2.0293,-2.0307,-2.0325,-2.033,-2.0334,-2.0341,-2.0383,-2.0392,-2.0299,-2.0299,-2.0299,0,0,-1.9663,-1.9706,-1.9736,-1.9814,-1.9851,-1.9903,-1.9892,-1.9948,-1.9987,-1.9999,-2.0069,-2.0099,-2.0153,-2.0228,-2.0262,-2.0254,-2.0369,-2.034,-2.0342,-2.0347,-2.0388,-2.0397,-2.0405,-2.0302,-2.0302,-2.0301,0,0,-1.9722,-1.9759,-1.9814,-1.9851,-1.9907,-1.9933,-1.9946,-2.0004,-2.0024,-2.0094,-2.0105,-2.0152,-2.0244,-2.0282,-2.0313,-2.0385,-2.0391,-2.0401,-2.0428,-2.0469,-2.0476,-2.0483,-2.0508,-2.0517,-2.0408,-2.0408,-2.0408,0,-1.9737,-1.9816,-1.9842,-1.9897,-1.9931,-1.9944,-2.0,-2.0035,-2.0105,-2.0128,-2.0118,-2.0233,-2.0271,-2.0354,-2.0371,-2.0396,-2.0412,-2.0395,-2.0473,-2.048,-2.0487,-2.0511,-2.0521,-2.0409,-2.0409,-2.0409,-2.0409,0,-1.9831,-1.9886,-1.9924,-1.999,-2.0028,-2.0084,-2.0118,-2.0154,-2.0167,-2.0194,-2.0265,-2.0311,-2.0372,-2.0393,-2.0406,-2.0478,-2.0471,-2.0467,-2.0448,-2.0496,-2.0519,-2.0529,-2.041,-2.041,-2.041,-2.0409,0,0,-1.9892,-1.9972,-1.9985,-2.0015,-2.0077,-2.012,-2.0176,-2.0235,-2.0265,-2.0313,-2.036,-2.0437,-2.0433,-2.0469,-2.0487,-2.0522,-2.0576,-2.0514,-2.0516,-2.0524,-2.0658,-2.066,-2.0671,-2.058,-2.0582,-2.0584,-2.0653,0,-1.9958,-2.0057,-2.0082,-2.0167,-2.0218,-2.0231,-2.0279,-2.0323,-2.035,-2.0397,-2.0427,-2.048,-2.0471,-2.0493,-2.0529,-2.0562,-2.0604,-2.0557,-2.0625,-2.0627,-2.0611,-2.0683,-2.0687,-2.075,-2.0662,-2.0664,-2.0665,0,-2.0048,-2.0096,-2.0186,-2.0241,-2.0263,-2.0307,-2.0363,-2.0407,-2.0457,-2.0474,-2.0513,-2.0527,-2.0586,-2.0564,-2.0646,-2.0614,-2.0643,-2.0663,-2.0667,-2.0674,-2.0649,-2.0692,-2.0771,-2.078,-2.068,-2.0679,-2.0678,0,-2.0083,-2.0171,-2.0236,-2.0261,-2.0327,-2.0357,-2.0386,-2.0433,-2.0467,-2.0516,-2.0539,-2.0594,-2.0625,-2.0667,-2.0696,-2.0678,-2.0775,-2.0756,-2.0791,-2.079,-2.0811,-2.0809,-2.0895,-2.083,-2.083,-2.083,-2.0829,0,-2.0153,-2.0208,-2.0252,-2.0292,-2.0354,-2.0382,-2.0442,-2.0471,-2.0513,-2.0559,-2.0574,-2.0617,-2.0652,-2.07,-2.0723,-2.0786,-2.08,-2.0816,-2.0821,-2.0814,-2.0812,-2.0834,-2.083,-2.0832,-2.0832,-2.0831,-2.0831,0,-2.0203,-2.0235,-2.0307,-2.0362,-2.0378,-2.042,-2.0468,-2.0508,-2.0535,-2.0593,-2.0608,-2.0651,-2.0707,-2.074,-2.0812,-2.0827,-2.0898,-2.0902,-2.0881,-2.0884,-2.0917,-2.0913,-2.1019,-2.1034,-2.0959,-2.096,-2.096,0,-2.0246,-2.0288,-2.0348,-2.0379,-2.0408,-2.0459,-2.0494,-2.0523,-2.0558,-2.0617,-2.0649,-2.0707,-2.0754,-2.0845,-2.0882,-2.0937,-2.0942,-2.0976,-2.0951,-2.0942,-2.0943,-2.094,-2.0944,-2.098,-2.098,-2.0981,-2.0981,0,-2.0319,-2.0332,-2.0381,-2.0435,-2.0475,-2.052,-2.0564,-2.0589,-2.0625,-2.0664,-2.0722,-2.0759,-2.0832,-2.0889,-2.0947,-2.0977,-2.0986,-2.0989,-2.1,-2.0993,-2.098,-2.0987,-2.0893,-2.0986,-2.0986,-2.0986,-2.0985,-2.0985,-2.0366,-2.0404,-2.0452,-2.0506,-2.0541,-2.0582,-2.0621,-2.0653,-2.0702,-2.0763,-2.0777,-2.0838,-2.0886,-2.0965,-2.0996,-2.1044,-2.1038,-2.1054,-2.1058,-2.1062,-2.1063,-2.0972,-2.1055,-2.1055,-2.1055,-2.1055,-2.1055,0,-2.044,-2.0471,-2.052,-2.058,-2.0623,-2.0626,-2.0675,-2.071,-2.0763,-2.0807,-2.0853,-2.0919,-2.0975,-2.1016,-2.1073,-2.1103,-2.1109,-2.1117,-2.1115,-2.1122,-2.1065,-2.105,-2.1112,-2.1112,-2.1112,-2.1112,-2.1112,-2.1112,-2.0483,-2.0547,-2.0566,-2.0648,-2.0679,-2.0738,-2.0765,-2.0803,-2.0838,-2.0911,-2.0956,-2.0983,-2.1026,-2.1085,-2.1136,-2.1147,-2.1167,-2.1175,-2.1186,-2.1132,-2.1126,-2.112,-2.1106,-2.1179,-2.1179,-2.124,-2.124,-2.1241]}]]